VJC495 VVTS-VVBM

Flight info

Callsign VJC495
Flight time 0h 40m
Altitude 21000
Route AC W15 LKH
Aircraft A320/M-L/L

Departure

Time 2026-04-20 03:38
Airport Tan Son Nhat International Airport (VVTS)

Arrival

Time 2026-04-20 04:18
Airport Buon Ma Thuot Airport (VVBM)
Time Latitude Longitude Altitude Speed Heading
2026-04-20 03:22 10.81508 106.65637 41 ft 0 kts 159°
2026-04-20 03:29 10.81506 106.65638 41 ft 0 kts 159°
2026-04-20 03:29 10.81498 106.65641 42 ft 1 kts 159°
2026-04-20 03:29 10.81485 106.65646 42 ft 2 kts 159°
2026-04-20 03:29 10.81467 106.65653 42 ft 3 kts 159°
2026-04-20 03:30 10.81456 106.65672 42 ft 3 kts 101°
2026-04-20 03:30 10.81460 106.65699 42 ft 4 kts 69°
2026-04-20 03:30 10.81472 106.65731 42 ft 5 kts 69°
2026-04-20 03:30 10.81487 106.65768 42 ft 6 kts 62°
2026-04-20 03:31 10.81523 106.65791 41 ft 6 kts
2026-04-20 03:31 10.81573 106.65794 41 ft 7 kts
2026-04-20 03:31 10.81627 106.65802 42 ft 8 kts 25°
2026-04-20 03:31 10.81664 106.65849 42 ft 9 kts 68°
2026-04-20 03:32 10.81688 106.65912 42 ft 9 kts 69°
2026-04-20 03:32 10.81713 106.65981 41 ft 10 kts 70°
2026-04-20 03:32 10.81746 106.66049 42 ft 11 kts 43°
2026-04-20 03:32 10.81822 106.66067 42 ft 11 kts
2026-04-20 03:33 10.81880 106.66122 42 ft 12 kts 67°
2026-04-20 03:33 10.81912 106.66204 41 ft 12 kts 69°
2026-04-20 03:33 10.81944 106.66289 41 ft 13 kts 69°
2026-04-20 03:33 10.81977 106.66377 42 ft 13 kts 69°
2026-04-20 03:34 10.81999 106.66438 42 ft 13 kts 70°
2026-04-20 03:34 10.82080 106.66650 42 ft 14 kts 69°
2026-04-20 03:34 10.82116 106.66745 41 ft 14 kts 69°
2026-04-20 03:35 10.82151 106.66839 41 ft 14 kts 69°
2026-04-20 03:35 10.82187 106.66934 42 ft 14 kts 69°
2026-04-20 03:35 10.82213 106.67000 42 ft 5 kts 53°
2026-04-20 03:35 10.82254 106.67010 41 ft 6 kts 345°
2026-04-20 03:36 10.82299 106.66988 42 ft 7 kts 325°
2026-04-20 03:36 10.82332 106.66958 42 ft 6 kts 338°
2026-04-20 03:36 10.82357 106.66946 42 ft 3 kts 306°
2026-04-20 03:36 10.82358 106.66917 41 ft 4 kts 255°
2026-04-20 03:37 10.82346 106.66884 41 ft 5 kts 249°
2026-04-20 03:37 10.82318 106.66811 42 ft 32 kts 248°
2026-04-20 03:37 10.82151 106.66372 42 ft 98 kts 249°
2026-04-20 03:37 10.81838 106.65544 42 ft 151 kts 249°
2026-04-20 03:38 10.81410 106.64426 211 ft 179 kts 246°
2026-04-20 03:38 10.80975 106.63212 636 ft 186 kts 248°
2026-04-20 03:38 10.80556 106.61991 1340 ft 179 kts 248°
2026-04-20 03:38 10.80149 106.60820 1801 ft 182 kts 249°
2026-04-20 03:39 10.79701 106.59553 2089 ft 196 kts 249°
2026-04-20 03:39 10.79217 106.58191 2387 ft 212 kts 249°
2026-04-20 03:39 10.78702 106.56737 2691 ft 227 kts 249°
2026-04-20 03:39 10.78149 106.55180 2955 ft 246 kts 249°
2026-04-20 03:40 10.77550 106.53500 3499 ft 254 kts 249°
2026-04-20 03:40 10.76949 106.51811 4215 ft 256 kts 249°
2026-04-20 03:40 10.76091 106.50247 4761 ft 264 kts 224°
2026-04-20 03:40 10.74486 106.49299 5148 ft 276 kts 190°
2026-04-20 03:41 10.72597 106.49395 5778 ft 279 kts 158°
2026-04-20 03:41 10.70996 106.50450 6534 ft 278 kts 137°
2026-04-20 03:41 10.69560 106.51784 7307 ft 281 kts 135°
2026-04-20 03:41 10.68213 106.53202 8005 ft 286 kts 129°
2026-04-20 03:42 10.66978 106.54806 8752 ft 288 kts 123°
2026-04-20 03:42 10.65930 106.56541 9466 ft 291 kts 116°
2026-04-20 03:42 10.65077 106.58411 10176 ft 294 kts 109°
2026-04-20 03:42 10.64428 106.60403 10679 ft 305 kts 103°
2026-04-20 03:43 10.63998 106.62562 10993 ft 321 kts 96°
2026-04-20 03:43 10.63831 106.64864 11454 ft 332 kts 89°
2026-04-20 03:43 10.63956 106.67223 12141 ft 335 kts 82°
2026-04-20 03:43 10.64370 106.69533 12841 ft 337 kts 75°
2026-04-20 03:44 10.65087 106.71816 13503 ft 341 kts 68°
2026-04-20 03:44 10.66104 106.74008 14157 ft 344 kts 60°
2026-04-20 03:44 10.67347 106.76073 14751 ft 350 kts 58°
2026-04-20 03:44 10.68662 106.78200 15030 ft 365 kts 58°
2026-04-20 03:45 10.70039 106.80421 15286 ft 379 kts 57°
2026-04-20 03:45 10.71485 106.82748 15544 ft 392 kts 57°
2026-04-20 03:45 10.72949 106.85103 15979 ft 399 kts 57°
2026-04-20 03:45 10.73922 106.86667 16409 ft 400 kts 57°
2026-04-20 03:46 10.75868 106.89797 17733 ft 388 kts 57°
2026-04-20 03:46 10.77285 106.92076 18771 ft 378 kts 57°
2026-04-20 03:46 10.78658 106.94284 19726 ft 370 kts 57°
2026-04-20 03:46 10.80039 106.96504 20405 ft 371 kts 57°
2026-04-20 03:47 10.81432 106.98743 20810 ft 379 kts 57°
2026-04-20 03:47 10.82857 107.01035 20928 ft 395 kts 57°
2026-04-20 03:47 10.84355 107.03444 20936 ft 412 kts 57°
2026-04-20 03:47 10.85918 107.05959 20938 ft 424 kts 57°
2026-04-20 03:48 10.87498 107.08502 20939 ft 427 kts 57°
2026-04-20 03:48 10.89075 107.11041 20940 ft 427 kts 57°
2026-04-20 03:48 10.90672 107.13615 20940 ft 427 kts 57°
2026-04-20 03:48 10.92256 107.16166 20941 ft 427 kts 57°
2026-04-20 03:49 10.93858 107.18709 20940 ft 427 kts 56°
2026-04-20 03:49 10.95550 107.21186 20941 ft 427 kts 54°
2026-04-20 03:49 10.97256 107.23625 20941 ft 427 kts 54°
2026-04-20 03:49 10.98990 107.26093 20941 ft 427 kts 54°
2026-04-20 03:50 11.00713 107.28545 20941 ft 427 kts 54°
2026-04-20 03:50 11.02424 107.30981 20941 ft 427 kts 54°
2026-04-20 03:50 11.04167 107.33464 20940 ft 427 kts 54°
2026-04-20 03:50 11.05881 107.35905 20941 ft 427 kts 54°
2026-04-20 03:51 11.07611 107.38372 20941 ft 427 kts 54°
2026-04-20 03:51 11.09336 107.40832 20941 ft 426 kts 54°
2026-04-20 03:51 11.11054 107.43276 20941 ft 426 kts 54°
2026-04-20 03:51 11.12788 107.45729 20941 ft 427 kts 54°
2026-04-20 03:52 11.14526 107.48192 20941 ft 427 kts 54°
2026-04-20 03:52 11.16237 107.50625 20941 ft 427 kts 54°
2026-04-20 03:52 11.17960 107.53084 20941 ft 427 kts 54°
2026-04-20 03:52 11.19680 107.55542 20941 ft 427 kts 54°
2026-04-20 03:53 11.21423 107.58034 20941 ft 427 kts 54°
2026-04-20 03:53 11.23131 107.60475 20941 ft 427 kts 54°
2026-04-20 03:53 11.24863 107.62947 20941 ft 427 kts 54°
2026-04-20 03:53 11.26529 107.65324 20941 ft 427 kts 54°
2026-04-20 03:54 11.28244 107.67784 20941 ft 427 kts 54°
2026-04-20 03:54 11.29945 107.70229 20941 ft 427 kts 54°
2026-04-20 03:54 11.31685 107.72728 20941 ft 427 kts 54°
2026-04-20 03:54 11.33398 107.75186 20941 ft 427 kts 54°
2026-04-20 03:55 11.35120 107.77656 20941 ft 427 kts 54°
2026-04-20 03:55 11.36829 107.80104 20941 ft 427 kts 54°
2026-04-20 03:55 11.38557 107.82581 20942 ft 427 kts 54°
2026-04-20 03:55 11.40278 107.85046 20944 ft 427 kts 54°
2026-04-20 03:56 11.41995 107.87507 20948 ft 427 kts 54°
2026-04-20 03:56 11.43696 107.89946 20952 ft 427 kts 54°
2026-04-20 03:56 11.45423 107.92422 20957 ft 427 kts 54°
2026-04-20 03:56 11.47118 107.94853 20962 ft 426 kts 54°
2026-04-20 03:57 11.48846 107.97333 20967 ft 426 kts 54°
2026-04-20 03:57 11.50554 107.99783 20973 ft 426 kts 54°
2026-04-20 03:57 11.52268 108.02242 20978 ft 427 kts 54°
2026-04-20 03:57 11.54005 108.04736 20983 ft 427 kts 54°
2026-04-20 03:58 11.55710 108.07185 20987 ft 427 kts 54°
2026-04-20 03:58 11.57426 108.09650 20990 ft 427 kts 54°
2026-04-20 03:58 11.59149 108.12126 20992 ft 427 kts 54°
2026-04-20 03:58 11.60861 108.14587 20993 ft 427 kts 54°
2026-04-20 03:59 11.62583 108.17062 20993 ft 427 kts 54°
2026-04-20 03:59 11.64295 108.19524 20993 ft 427 kts 54°
2026-04-20 03:59 11.66015 108.21999 20994 ft 427 kts 54°
2026-04-20 03:59 11.67718 108.24450 20993 ft 427 kts 54°
2026-04-20 04:00 11.69443 108.26932 20992 ft 429 kts 54°
2026-04-20 04:00 11.71162 108.29407 20993 ft 430 kts 54°
2026-04-20 04:00 11.73104 108.31705 20977 ft 429 kts 40°
2026-04-20 04:00 11.75633 108.33353 20984 ft 430 kts 23°
2026-04-20 04:01 11.78508 108.34149 20987 ft 430 kts
2026-04-20 04:01 11.81476 108.34045 20987 ft 431 kts 349°
2026-04-20 04:01 11.84359 108.33362 20989 ft 431 kts 346°
2026-04-20 04:01 11.87289 108.32575 20562 ft 430 kts 345°
2026-04-20 04:02 11.90148 108.31812 20065 ft 427 kts 346°
2026-04-20 04:02 11.93007 108.31068 19544 ft 423 kts 346°
2026-04-20 04:02 11.95828 108.30346 19017 ft 419 kts 346°
2026-04-20 04:02 11.98626 108.29633 18483 ft 415 kts 346°
2026-04-20 04:03 12.01434 108.28919 17944 ft 411 kts 346°
2026-04-20 04:03 12.04163 108.28224 17419 ft 407 kts 346°
2026-04-20 04:03 12.06886 108.27531 16885 ft 403 kts 346°
2026-04-20 04:03 12.09608 108.26838 16343 ft 400 kts 346°
2026-04-20 04:04 12.12281 108.26160 15811 ft 397 kts 346°
2026-04-20 04:04 12.14928 108.25491 15281 ft 394 kts 346°
2026-04-20 04:04 12.17591 108.24818 14746 ft 390 kts 347°
2026-04-20 04:04 12.20179 108.24162 14221 ft 388 kts 347°
2026-04-20 04:05 12.22786 108.23502 13692 ft 385 kts 347°
2026-04-20 04:05 12.25370 108.22845 13164 ft 382 kts 347°
2026-04-20 04:05 12.27913 108.22200 12645 ft 379 kts 347°
2026-04-20 04:05 12.30463 108.21552 12121 ft 377 kts 347°
2026-04-20 04:06 12.32977 108.20913 11605 ft 374 kts 347°
2026-04-20 04:06 12.35480 108.20278 11355 ft 362 kts 347°
2026-04-20 04:06 12.37856 108.19672 11229 ft 347 kts 347°
2026-04-20 04:06 12.40137 108.19090 11112 ft 333 kts 347°
2026-04-20 04:07 12.42316 108.18388 10741 ft 330 kts 334°
2026-04-20 04:07 12.44153 108.16946 10148 ft 334 kts 310°
2026-04-20 04:07 12.45269 108.14902 9712 ft 332 kts 287°
2026-04-20 04:07 12.45564 108.12598 9520 ft 322 kts 268°
2026-04-20 04:08 12.45255 108.10377 9339 ft 312 kts 259°
2026-04-20 04:08 12.44942 108.08224 9152 ft 302 kts 266°
2026-04-20 04:08 12.44943 108.06117 8968 ft 291 kts 276°
2026-04-20 04:08 12.45262 108.04098 8791 ft 281 kts 285°
2026-04-20 04:09 12.45829 108.02216 8618 ft 272 kts 292°
2026-04-20 04:09 12.46578 108.00481 8449 ft 262 kts 298°
2026-04-20 04:09 12.47467 107.98889 8284 ft 253 kts 304°
2026-04-20 04:09 12.48455 107.97443 8080 ft 247 kts 308°
2026-04-20 04:10 12.49538 107.96106 7775 ft 245 kts 313°
2026-04-20 04:10 12.50721 107.94862 7457 ft 244 kts 317°
2026-04-20 04:10 12.51994 107.93715 7141 ft 242 kts 322°
2026-04-20 04:10 12.53325 107.92685 6828 ft 241 kts 326°
2026-04-20 04:11 12.54724 107.91758 6506 ft 240 kts 330°
2026-04-20 04:11 12.56181 107.90939 6190 ft 239 kts 334°
2026-04-20 04:11 12.57677 107.90234 5883 ft 238 kts 338°
2026-04-20 04:11 12.59234 107.89634 5576 ft 236 kts 342°
2026-04-20 04:12 12.60785 107.89162 5404 ft 228 kts 346°
2026-04-20 04:12 12.62291 107.88814 5241 ft 220 kts 349°
2026-04-20 04:12 12.63802 107.88570 5005 ft 217 kts 353°
2026-04-20 04:12 12.65297 107.88467 4701 ft 216 kts
2026-04-20 04:13 12.66682 107.88975 4394 ft 214 kts 39°
2026-04-20 04:13 12.67581 107.90164 4356 ft 216 kts 70°
2026-04-20 04:13 12.67777 107.91691 4355 ft 217 kts 92°
2026-04-20 04:13 12.67692 107.93198 4427 ft 203 kts 94°
2026-04-20 04:14 12.67597 107.94556 4347 ft 182 kts 94°
2026-04-20 04:14 12.67517 107.95785 4266 ft 166 kts 93°
2026-04-20 04:14 12.67447 107.96963 4206 ft 167 kts 93°
2026-04-20 04:14 12.67382 107.98143 4003 ft 159 kts 93°
2026-04-20 04:15 12.67324 107.99232 3796 ft 151 kts 92°
2026-04-20 04:15 12.67268 108.00311 3616 ft 151 kts 92°
2026-04-20 04:15 12.67212 108.01384 3423 ft 150 kts 92°
2026-04-20 04:15 12.67158 108.02442 3235 ft 150 kts 92°
2026-04-20 04:16 12.67103 108.03501 3040 ft 149 kts 92°
2026-04-20 04:16 12.67049 108.04563 2845 ft 149 kts 92°
2026-04-20 04:16 12.66995 108.05622 2647 ft 149 kts 92°
2026-04-20 04:16 12.66941 108.06687 2447 ft 148 kts 92°
2026-04-20 04:17 12.66896 108.07736 2248 ft 148 kts 91°
2026-04-20 04:17 12.66874 108.08783 2060 ft 147 kts 89°
2026-04-20 04:17 12.66869 108.09836 1907 ft 147 kts 91°
2026-04-20 04:17 12.66851 108.10877 1746 ft 143 kts 91°
2026-04-20 04:18 12.66835 108.11749 1744 ft 98 kts 91°
2026-04-20 04:18 12.66826 108.12326 1744 ft 72 kts 91°
2026-04-20 04:18 12.66819 108.12804 1744 ft 61 kts 90°
2026-04-20 04:18 12.66814 108.13139 1744 ft 38 kts 90°
2026-04-20 04:19 12.66789 108.13355 1744 ft 14 kts 111°
2026-04-20 04:19 12.66806 108.13367 1744 ft 6 kts 285°
2026-04-20 04:19 12.66811 108.13317 1744 ft 7 kts 271°
2026-04-20 04:19 12.66812 108.13264 1744 ft 7 kts 270°
2026-04-20 04:20 12.66812 108.13206 1744 ft 8 kts 270°
2026-04-20 04:20 12.66813 108.13143 1744 ft 9 kts 271°
2026-04-20 04:20 12.66814 108.13077 1744 ft 9 kts 271°
2026-04-20 04:20 12.66816 108.13006 1744 ft 10 kts 271°
2026-04-20 04:21 12.66818 108.12933 1744 ft 10 kts 271°
2026-04-20 04:21 12.66819 108.12856 1744 ft 10 kts 271°
2026-04-20 04:21 12.66821 108.12778 1744 ft 11 kts 271°
2026-04-20 04:21 12.66823 108.12696 1744 ft 11 kts 271°
2026-04-20 04:22 12.66824 108.12614 1744 ft 11 kts 271°
2026-04-20 04:22 12.66826 108.12528 1744 ft 12 kts 271°
2026-04-20 04:22 12.66828 108.12442 1744 ft 12 kts 271°
2026-04-20 04:22 12.66830 108.12353 1744 ft 12 kts 271°
2026-04-20 04:23 12.66832 108.12264 1744 ft 12 kts 271°
2026-04-20 04:23 12.66835 108.12171 1744 ft 12 kts 271°
2026-04-20 04:23 12.66837 108.12078 1743 ft 13 kts 271°
2026-04-20 04:23 12.66840 108.11983 1744 ft 13 kts 271°
2026-04-20 04:24 12.66843 108.11889 1744 ft 13 kts 272°
2026-04-20 04:24 12.66846 108.11796 1744 ft 11 kts 272°
2026-04-20 04:24 12.66841 108.11715 1744 ft 11 kts 259°
2026-04-20 04:24 12.66790 108.11657 1744 ft 11 kts 187°
2026-04-20 04:25 12.66708 108.11656 1744 ft 12 kts 180°
2026-04-20 04:25 12.66645 108.11660 1744 ft 6 kts 152°
2026-04-20 04:25 12.66635 108.11689 1744 ft 3 kts 75°
2026-04-20 04:25 12.66638 108.11712 1744 ft 3 kts 88°
2026-04-20 04:26 12.66637 108.11733 1744 ft 2 kts 120°
2026-04-20 04:26 12.66620 108.11739 1744 ft 3 kts 176°
2026-04-20 04:26 12.66596 108.11740 1744 ft 3 kts 182°